Content
SEND FEEDBACK

Daily
Averages
Monthly
Summary
Turkmenistan

ASHGABAT, TURKMENISTAN


Home > Asia > Turkmenistan
Elevation: 775 feet     Latitude: 37 58N     Longitude: 058 20E

WEATHER
 
SELECT A DAY
Number of Records: 181,104;   Date Range: 3/15/97 - 10/19/14
 
SHARE

PRINT THIS DATA

[ ← Previous Day ]
WEATHER ALMANAC - NOVEMBER 1, 2013
[ Next Day → ]
[ °C ]   °F
Weather ElementAverageHighLow
Temperature57.9 °F73.4 °F (3:00 pm)44 °F (8:00 am)
Dewpoint37.7 °F42 °F (2:00 am)32 °F (3:00 pm)
Humidity49 %81 % (3:00 am)17 % (5:00 pm)
Barometer30.23 in30.30 in (11:00 pm)30.18 in (2:00 pm)
Wind Speed2.8 mph8.9 mph (5:00 pm)
Weather ElementAverage
Visibility6.1 mi
Wind DirectionSE (136.9 °)

Weather ElementTotal
Precipitation---
Heating Degree Days6.3 (Base 65)
Growing Degree Days8.7 (Base 50)
Averaged from 31 records on November 1, 2013
WEATHER CONDITIONS BREAKOUT
WIND DIRECTION BREAKOUT
WEATHER BY HOUR - NOVEMBER 1, 2013
[ °C ]   °F
Local TimeTemperatureDewpointHumidityBarometerVisibilityWind DirectionWind SpeedGust SpeedPrecipitationEventsConditions
1:00 AM50.0 °F39.2 °F66 %30.24 in6.2 miEast (100°)2.2 mphClear
2:00 AM48.0 °F42.0 °F73 %30.28 in6.0 miCalm
2:00 AM48.2 °F39.2 °F71 %30.21 in6.2 miCalmClear
3:00 AM46.4 °F41.0 °F81 %30.21 in6.2 miSE (140°)2.2 mphClear
4:00 AM50.0 °F39.2 °F66 %30.21 in6.2 miSSE (160°)4.5 mphClear
5:00 AM46.0 °F39.0 °F68 %30.25 in6.0 miCalm
5:00 AM46.4 °F37.4 °F71 %30.21 in6.2 miCalmClear
6:00 AM44.6 °F37.4 °F76 %30.21 in6.2 miCalmClear
7:00 AM44.6 °F39.2 °F81 %30.21 in6.2 miVariable2.2 mphClear
8:00 AM44.0 °F40.0 °F79 %30.25 in6.0 miCalm
8:00 AM44.6 °F39.2 °F81 %30.21 in6.2 miCalmClear
9:00 AM53.6 °F41.0 °F62 %30.24 in6.2 miCalmClear
10:00 AM60.8 °F39.2 °F45 %30.24 in6.2 miCalmClear
11:00 AM63.0 °F42.0 °F34 %30.25 in6.0 miCalm
11:00 AM64.4 °F37.4 °F37 %30.24 in6.2 miCalmClear
12:00 PM66.2 °F37.4 °F35 %30.21 in6.2 miVariable2.2 mphClear
1:00 PM69.8 °F37.4 °F31 %30.21 in6.2 miVariable2.2 mphClear
2:00 PM71.0 °F38.0 °F20 %30.19 in6.0 miCalm
2:00 PM71.6 °F35.6 °F27 %30.18 in6.2 miVariable2.2 mphClear
3:00 PM73.4 °F32.0 °F22 %30.18 in6.2 miNW (320°)4.5 mphClear
4:00 PM71.6 °F33.8 °F25 %30.18 in6.2 miNNW (330°)6.7 mphClear
5:00 PM72.0 °F37.0 °F17 %30.20 in6.0 miNW (310°)6.7 mphClear
5:00 PM71.6 °F33.8 °F25 %30.21 in6.2 miNW (310°)8.9 mphPartly Cloudy
6:00 PM66.2 °F33.8 °F30 %30.21 in6.2 miWNW (290°)6.7 mphScattered Clouds
7:00 PM62.6 °F37.4 °F39 %30.24 in6.2 miWest (280°)6.7 mphScattered Clouds
8:00 PM58.0 °F39.0 °F38 %30.26 in6.0 miWSW (250°)4.5 mph
8:00 PM60.8 °F35.6 °F39 %30.24 in6.2 miWSW (250°)4.5 mphClear
9:00 PM59.0 °F35.6 °F42 %30.27 in6.2 miSSW (210°)4.5 mphClear
10:00 PM57.2 °F35.6 °F44 %30.27 in6.2 miSSW (200°)4.5 mphClear
11:00 PM54.0 °F38.0 °F43 %30.30 in6.0 miSSW (210°)6.7 mph
11:00 PM55.4 °F37.4 °F51 %30.27 in6.2 miSSW (200°)4.5 mphClear
Hourly data recorded from UTAA, located miles away from Ashgabat, Turkmenistan







STORIES FROM OUR PARTNERS